This is the latest recevied weather packets stored in our database for station/object W0AVQ. If no packets are shown the sender has not sent any weather packets the latest 10 day(s).
| Time | Temp. | Humidity | Pressure | Rain* | Wind** | Luminosity | Snow |
|---|---|---|---|---|---|---|---|
| 1777464827 | 13.89° C | 96% | 1015.6 hPa | 0 mm | - | 10 W/m² | - |
| 1777464522 | 13.89° C | 97% | 1015.5 hPa | 0 mm | - | 10 W/m² | - |
| 1777464219 | 13.89° C | 97% | 1015.3 hPa | 0 mm | - | 8 W/m² | - |
| 1777463914 | 13.89° C | 97% | 1015.1 hPa | 0 mm | - | 13 W/m² | - |
| 1777463610 | 13.89° C | 98% | 1014.9 hPa | 0 mm | - | 13 W/m² | - |
| 1777463304 | 13.89° C | 99% | 1015 hPa | 0 mm | - | 7 W/m² | - |
| 1777463001 | 13.89° C | 99% | 1014.8 hPa | 0 mm | - | 7 W/m² | - |
| 1777462697 | 13.89° C | 99% | 1014.6 hPa | 0 mm | - | 5 W/m² | - |
| 1777462392 | 13.89° C | 99% | 1014.6 hPa | 0 mm | - | 6 W/m² | - |
| 1777462089 | 13.89° C | 99% | 1014.4 hPa | 0 mm | - | 6 W/m² | - |
| 1777461786 | 13.89° C | 99% | 1014.6 hPa | 0 mm | - | 2 W/m² | - |
| 1777461481 | 13.89° C | 99% | 1015 hPa | 0 mm | - | 2 W/m² | - |
| 1777461178 | 13.89° C | 99% | 1014.3 hPa | 0 mm | - | 0 W/m² | - |
| 1777460878 | 13.89° C | 99% | 1014.2 hPa | 0 mm | - | 0 W/m² | - |
| 1777460574 | 13.89° C | 99% | 1014 hPa | 0 mm | - | 0 W/m² | - |
| 1777460270 | 13.89° C | 99% | 1013.7 hPa | 0 mm | - | 0 W/m² | - |
| 1777459967 | 13.89° C | 99% | 1014 hPa | 0 mm | - | 0 W/m² | - |
| 1777459664 | 13.89° C | 99% | 1014.2 hPa | 0 mm | - | 0 W/m² | - |
| 1777459360 | 13.89° C | 99% | 1014.1 hPa | 0 mm | - | 0 W/m² | - |
| 1777459058 | 13.89° C | 99% | 1014.1 hPa | 0 mm | - | 0 W/m² | - |
| 1777458755 | 13.89° C | 99% | 1014.2 hPa | 0 mm | - | 0 W/m² | - |
| 1777458452 | 13.89° C | 99% | 1014.4 hPa | 0 mm | - | 0 W/m² | - |
| 1777458148 | 13.89° C | 99% | 1014.6 hPa | 0 mm | - | 0 W/m² | - |
| 1777457844 | 14.44° C | 99% | 1014.3 hPa | 0 mm | - | 0 W/m² | - |
| 1777457539 | 14.44° C | 99% | 1014.3 hPa | 0 mm | - | 0 W/m² | - |
* Rain latest hour (hover to see other rain measurements)
** Current wind speed in m/s (hover to see current wind gust speed)